This is the latest recevied weather packets stored in our database for station/object KF4UQS-14. If no packets are shown the sender has not sent any weather packets the latest 10 day(s).
| Time | Temp. | Humidity | Pressure | Rain* | Wind** | Luminosity | Snow |
|---|---|---|---|---|---|---|---|
| 1778158775 | 15.56° C | 98% | 1011.1 hPa | 4.83 mm | - | 30 W/m² | - |
| 1778158473 | 15.56° C | 98% | 1011.2 hPa | 6.1 mm | - | 23 W/m² | - |
| 1778158170 | 16.11° C | 98% | 1011.4 hPa | 4.32 mm | - | 20 W/m² | - |
| 1778157866 | 16.11° C | 98% | 1011.3 hPa | 6.1 mm | - | 21 W/m² | - |
| 1778157564 | 16.11° C | 98% | 1011.3 hPa | 6.1 mm | - | 18 W/m² | - |
| 1778157262 | 16.67° C | 98% | 1010.9 hPa | 6.6 mm | - | 26 W/m² | - |
| 1778156958 | 18.33° C | 98% | 1010.9 hPa | 6.6 mm | - | 18 W/m² | - |
| 1778156653 | 18.33° C | 98% | 1010.8 hPa | 6.1 mm | - | 28 W/m² | - |
| 1778156349 | 18.89° C | 98% | 1010.8 hPa | 6.1 mm | - | 18 W/m² | - |
| 1778156045 | 18.89° C | 98% | 1011 hPa | 6.1 mm | - | 17 W/m² | - |
| 1778155742 | 18.89° C | 98% | 1010.9 hPa | 4.32 mm | - | 8 W/m² | - |
| 1778155438 | 18.89° C | 98% | 1010.8 hPa | 4.32 mm | - | 11 W/m² | - |
| 1778155134 | 18.89° C | 98% | 1011 hPa | 3.05 mm | - | 8 W/m² | - |
| 1778154830 | 18.89° C | 98% | 1010.6 hPa | 4.83 mm | - | 8 W/m² | - |
| 1778154526 | 18.89° C | 97% | 1010.8 hPa | 4.83 mm | - | 12 W/m² | - |
| 1778154223 | 18.89° C | 97% | 1010.8 hPa | 3.05 mm | - | 8 W/m² | - |
| 1778153921 | 18.89° C | 97% | 1010.9 hPa | 4.32 mm | - | 6 W/m² | - |
| 1778153618 | 18.89° C | 97% | 1010.8 hPa | 4.83 mm | - | 7 W/m² | - |
| 1778153315 | 18.89° C | 97% | 1010.8 hPa | 3.05 mm | - | 8 W/m² | - |
| 1778153012 | 18.89° C | 97% | 1010.5 hPa | 1.27 mm | - | 10 W/m² | - |
| 1778152710 | 18.89° C | 97% | 1010.6 hPa | 1.27 mm | - | 5 W/m² | - |
| 1778152406 | 18.89° C | 97% | 1010.6 hPa | 1.78 mm | - | 5 W/m² | - |
| 1778152102 | 18.89° C | 97% | 1010.8 hPa | 4.83 mm | - | 2 W/m² | - |
| 1778151799 | 18.89° C | 97% | 1010.6 hPa | 4.83 mm | - | 3 W/m² | - |
| 1778151496 | 18.89° C | 97% | 1010.7 hPa | 1.78 mm | - | 3 W/m² | - |
* Rain latest hour (hover to see other rain measurements)
** Current wind speed in m/s (hover to see current wind gust speed)